Regional Weather Roundup
Issued by NWS Newport/Morehead, NC

Current Version | Previous Version | Text Only | Print | Product List | Glossary On
Versions: 1 2 3 4 5 6 7 8 9 10 11 12 13 14 15 16 17 18 19 20 21 22 23 24 25 26 27 28 29 30 31 32 33 34 35 36 37 38 39 40 41 42 43 44 45 46 47 48 49 50
000
ASUS42 KMHX 311622
RWRMHX
WEATHER ROUNDUP FOR EASTERN NORTH CAROLINA
NATIONAL WEATHER SERVICE NEWPORT/MOREHEAD CITY NC
1200 PM EDT FRI OCT 31 2014

NOTE: "FAIR" INDICATES FEW OR NO CLOUDS BELOW 12,000 FEET
WITH NO SIGNIFICANT WEATHER AND/OR OBSTRUCTIONS TO VISIBILITY

NCZ015>017-031-032-045>047-102-103-311700-
NORTH COAST

CITY           SKY/WX    TMP DP  RH WIND       PRES   REMARKS
EDENTON        SUNNY     62  42  46 NE13G18   29.87F
ELIZABETH CITY PTSUNNY   64  47  53 N17       29.87F
KITTY HAWK     CLOUDY    61  47  61 NE8       29.83F
MANTEO         CLOUDY    60  48  63 N13G18    29.84F

$$

NCZ045>047-081-094-103-104-311700-
CENTRAL COAST

CITY           SKY/WX    TMP DP  RH WIND       PRES   REMARKS
FRISCO         PTSUNNY   63  53  70 NE12G24   29.81F
SWANQUARTER      N/A     63 N/A N/A N9G18     29.79F

$$

NCZ095-097-098-100-101-311700-
SOUTHERN COAST

CITY           SKY/WX    TMP DP  RH WIND       PRES   REMARKS
BEAUFORT       MOSUNNY   64  49  57 N22G28    29.83F
CEDAR ISLAND     N/A     63 N/A N/A N16G23    29.88S
JACKSONVILLE   SUNNY     64  44  48 N16       29.86F
PINEY ISLAND   CLOUDY    65  49  56 N15G22    29.84F
WILMINGTON     SUNNY     64  46  52 NE15      29.87F


$$

NCZ011>013-027>030-043-044-078>080-089-090>093-098-311700-
COASTAL PLAIN

CITY           SKY/WX    TMP DP  RH WIND       PRES   REMARKS
AHOSKIE        NOT AVBL
CLINTON        SUNNY     62  46  56 NE5       29.89F
ELIZABETHTOWN  SUNNY     63  45  52 N3        29.88F
GOLDSBORO      SUNNY     61  49  63 VRB7      29.88F
GREENVILLE     SUNNY     63  43  48 N13       29.92S
HAVELOCK       MOSUNNY   65  45  48 NE16      29.86F
KENANSVILLE    SUNNY     62  43  49 N7        29.89F
KINSTON        SUNNY     63  43  48 N12       29.89F
NEW BERN       SUNNY     65  46  50 NE15      29.88F
RICHLANDS      SUNNY     63  43  48 N14       29.87F
ROCKY MOUNT    SUNNY     60  42  51 N6        29.92F
WASHINGTON     SUNNY     62  42  47 NE9G16    29.87F
WHITEVILLE     SUNNY     62  45  52 NE6       29.88F

$$

AMZ130-135-150-152-154-156-158-170-250-252-270-ANZ085-086-088-633-658-670-311700-
MARINE OBSERVATIONS

STATION/POSITION TIME  TEMP    WIND        PRES    WAVE   SWELL
                       AIR SEA DIR/SP/G            HT/PER HT/PER
                 (UTC) (F)     (DEG/KT/KT) (MB)    (FT/S) (FT/S)
CHESAPEAKE LIGHT 1600   58      30/ 20/ 23 1011.8
64 E VA BEACH    1600   61 66   30/ 17/ 21 1010.1    3/ 4   2/ 7
DUCK             1600   60 65   10/ 17/ 21 1009.8
2 E DUCK         NOT AVBL
10 NE DUCK       1500      67                N/A     4/ 5
OREGON INLET     1600   61 65  360/ 10/ 18 1010.0
13E OREGON INLT  1600      68                N/A     6/ 5
HATTERAS CG      1600   62 64   20/ 20/ 24 1009.8
DIAMOND BUOY     1600   65      10/ 23/ 29 1008.2    7/ 6
17 S OCRACOKE    NOT AVBL
CAPE LOOKOUT     1600   62      10/ 14/ 19 1009.8
BEAUFORT LAB     1600   61 67   10/ 19/ 23 1009.6
30 SE NEW RIVER  1600   63 74   20/ 17/ 21 1009.5    6/ 6
5 SE WRIGHTSVLE  1600   59 71   40/ 14/ 17   N/A
225 S CAPE HAT   1505   74 78  250/ 12/ 14 1008.4    4/ 7   3/ 7
41 SE CHARLESTON 1600   67 76   20/ 16/ 23 1010.0    6/ 7   2/15

$$



USA.gov is the U.S. government's official web portal to all federal, state and local government web resources and services.